TimeAST,TemperatureF,Dew PointF,Humidity,Sea Level PressureIn,VisibilityMPH,Wind Direction,Wind SpeedMPH,Gust SpeedMPH,PrecipitationIn,Events,Conditions,WindDirDegrees,DateUTC
12:00 AM,40.6,36.9,86,-9999,-9999.0,SSW,5.8,-,N/A,,Unknown,200,2012-12-05 04:00:00
1:00 AM,42.1,38.1,86,-9999,-9999.0,South,5.8,-,N/A,,Unknown,190,2012-12-05 05:00:00
2:00 AM,43.9,39.9,86,-9999,-9999.0,South,9.2,-,N/A,,Unknown,190,2012-12-05 06:00:00
3:00 AM,44.6,41.0,87,-9999,-9999.0,SSW,15.0,-,N/A,,Unknown,200,2012-12-05 07:00:00
4:00 AM,45.0,41.7,88,-9999,-9999.0,South,16.1,-,N/A,,Unknown,190,2012-12-05 08:00:00
5:00 AM,45.3,42.6,90,-9999,-9999.0,South,13.8,-,N/A,,Unknown,180,2012-12-05 09:00:00
6:00 AM,45.9,42.4,88,-9999,-9999.0,South,13.8,-,N/A,,Unknown,180,2012-12-05 10:00:00
7:00 AM,46.4,43.5,90,-9999,-9999.0,South,11.5,-,N/A,,Unknown,190,2012-12-05 11:00:00
8:00 AM,46.9,45.0,93,-9999,-9999.0,South,12.7,-,N/A,,Unknown,170,2012-12-05 12:00:00
11:00 AM,48.7,46.8,93,-9999,-9999.0,South,19.6,-,N/A,,Unknown,180,2012-12-05 15:00:00
12:00 PM,49.8,47.7,92,-9999,-9999.0,South,20.7,-,N/A,,Unknown,180,2012-12-05 16:00:00
1:00 PM,50.0,48.2,94,-9999,-9999.0,South,19.6,-,N/A,,Unknown,170,2012-12-05 17:00:00
2:00 PM,51.6,49.3,92,-9999,-9999.0,South,20.7,-,N/A,,Unknown,190,2012-12-05 18:00:00
3:00 PM,52.3,50.2,92,-9999,-9999.0,South,20.7,27.6,N/A,,Unknown,190,2012-12-05 19:00:00
4:00 PM,53.4,51.6,94,-9999,-9999.0,SSW,26.5,32.2,N/A,,Unknown,210,2012-12-05 20:00:00
5:00 PM,52.7,51.3,95,-9999,-9999.0,SW,18.4,24.2,N/A,,Unknown,220,2012-12-05 21:00:00
6:00 PM,50.7,48.6,92,-9999,-9999.0,WNW,18.4,-,N/A,,Unknown,300,2012-12-05 22:00:00
7:00 PM,48.7,44.6,86,-9999,-9999.0,NW,19.6,-,N/A,,Unknown,320,2012-12-05 23:00:00
8:00 PM,47.5,43.5,86,-9999,-9999.0,NW,15.0,-,N/A,,Unknown,320,2012-12-06 00:00:00
9:00 PM,46.2,41.2,83,-9999,-9999.0,NW,16.1,-,N/A,,Unknown,310,2012-12-06 01:00:00
10:00 PM,45.0,38.7,79,-9999,-9999.0,WNW,16.1,-,N/A,,Unknown,300,2012-12-06 02:00:00
11:00 PM,44.1,37.9,79,-9999,-9999.0,NW,15.0,-,N/A,,Unknown,310,2012-12-06 03:00:00